[[{"header":{"parameterUnit":"m.s-1","parameterCategory":2,"la1":30.2991,"la2":30.254,"lo1":-89.0895,"lo2":-89.0444,"dy":0.0017,"dx":0.0017,"nx":28,"ny":28,"refTime":"2026-02-18T03:00:00:Z","depth":"0","parameterNumber":2,"parameterNumberName":"U-component_of_CURRENTS"},"data":[0,0,0,0,0,0,0,0,0,0,0,0,0,0,0,0,0,0,0,0,0,0,0,0,0,0,0,0,0,0,0,0,0,0,0,0,0,0,0,0,0,0,0,0,0,0,0,0,0,0,0,0,0,0,0,0,0,0,0.2921,0.2918,0,0.2566,0.2562,0.2558,0.2417,0.2418,0.2419,0.242,0.2409,0.2408,0.2406,0,0,0,0,0,0,0,0,0,0,0,0,0,0.3324,0.3318,0.2922,0.2917,0.2913,0.2567,0.2562,0.2557,0.2417,0.2418,0.2419,0.242,0.2409,0.2408,0.2406,0,0,0,0,0,0,0,0,0,0,0,0,0,0.3078,0.3316,0.2923,0.2801,0.2787,0.2568,0.2562,0.2556,0.2417,0.2418,0.242,0.2421,0.2409,0.2408,0.2406,0.2369,0,0,0.2401,0.24,0,0,0,0,0,0,0,0,0.3092,0.3063,0.2823,0.2809,0.2793,0.2537,0.2699,0.251,0.2417,0.2557,0.242,0.2421,0.2483,0.2475,0.24,0.2368,0.2368,0.2401,0.24,0.2399,0.2399,0,0,0,0,0,0,0,0.3109,0.3077,0.2781,0.2819,0.28,0.2711,0.2679,0.266,0.2524,0.2545,0.2534,0.2494,0.2477,0.2402,0.24,0.2367,0.2401,0.2399,0.2398,0.2398,0.2419,0.2421,0,0,0,0,0,0,0.3158,0.3093,0.2792,0.277,0.2949,0.2704,0.2668,0.2618,0.2516,0.2498,0.2493,0.2489,0.2404,0.2402,0.24,0.2447,0.2399,0.2397,0.2396,0.2418,0.242,0.2422,0,0,0,0,0,0,0.3168,0.3135,0.2807,0.2925,0.2877,0.2697,0.2641,0.261,0.2535,0.2472,0.2462,0.245,0.2405,0.2402,0.2411,0.2444,0.2397,0.2395,0.2416,0.2418,0.2421,0.2483,0,0,0,0,0,0,0.3181,0.314,0.3124,0.2928,0.2872,0.2677,0.2638,0.2602,0.2508,0.2499,0.2433,0.2431,0.2406,0.2414,0.2409,0.2441,0.2394,0.2414,0.2417,0.242,0.2479,0.2487,0.2494,0,0,0,0,0,0.3197,0.3128,0.3125,0.3089,0.2854,0.2676,0.2638,0.2516,0.2506,0.2457,0.2449,0.2433,0.243,0.2413,0.2407,0.2439,0.2412,0.2416,0.242,0.2476,0.2486,0.2494,0,0,0,0,0,0,0.3253,0.3102,0.3095,0.2978,0.2858,0.2652,0.2581,0.2519,0.2457,0.2474,0.2439,0.2437,0.2461,0.2442,0.2423,0.2458,0.2425,0.2427,0.2469,0.2478,0.2486,0.2508,0.2392,0,0,0,0,0,0.3277,0.3215,0.3058,0.2973,0.2916,0.2767,0.2684,0.2609,0.252,0.2488,0.2454,0.245,0.2464,0.2466,0.2459,0.2466,0.2479,0.2489,0.2497,0.2503,0.252,0.2545,0.2557,0.2433,0.2433,0.2433,0,0,0.3279,0.3187,0.3153,0.2989,0.2886,0.2798,0.2718,0.2589,0.2561,0.251,0.2481,0.2472,0.2474,0.2488,0.2498,0.2479,0.2554,0.2508,0.2513,0.2527,0.255,0.2562,0.2573,0.2436,0.2435,0.2435,0,0,0.3216,0.3173,0.3094,0.3016,0.2877,0.2804,0.2782,0.2612,0.2586,0.2551,0.254,0.255,0.2528,0.2537,0.2547,0.2594,0.2596,0.26,0.2652,0.2676,0.2686,0.2695,0.2764,0.2779,0.2601,0.2601,0.2601,0,0.3229,0.3116,0.3041,0.295,0.2903,0.2825,0.2751,0.2707,0.2579,0.2592,0.2568,0.257,0.2557,0.2614,0.263,0.2613,0.2641,0.2613,0.2686,0.2695,0.2703,0.2771,0.2787,0.2605,0.2604,0.2604,0.2604,0,0.3102,0.3042,0.2983,0.2896,0.2843,0.2757,0.2716,0.2698,0.2689,0.2654,0.2692,0.2667,0.2673,0.2676,0.2667,0.2731,0.2741,0.2693,0.2661,0.2719,0.2788,0.2803,0.261,0.2609,0.2607,0.2607,0,0,0.3043,0.2924,0.2912,0.2896,0.282,0.2756,0.2779,0.2756,0.2793,0.2746,0.2783,0.2798,0.2788,0.28,0.279,0.2808,0.2892,0.2782,0.2781,0.285,0.2991,0.2978,0.2993,0.2854,0.2856,0.2858,0.3029,0,0.297,0.2843,0.2812,0.2759,0.2701,0.2721,0.2751,0.2763,0.2792,0.2823,0.285,0.2876,0.2842,0.2852,0.2872,0.2883,0.2929,0.2853,0.2925,0.2929,0.2907,0.3008,0.2898,0.3038,0.3043,0.3045,0.3047,0,0.2836,0.2794,0.2715,0.2728,0.2711,0.27,0.2786,0.2797,0.2877,0.2908,0.2956,0.2967,0.3024,0.2963,0.3045,0.3,0.3014,0.3016,0.3021,0.2996,0.2942,0.2974,0.3065,0.2984,0.3069,0.3068,0.3066,0,0.2804,0.2728,0.2694,0.2683,0.268,0.2704,0.2734,0.2814,0.2863,0.2963,0.3007,0.3075,0.3109,0.3133,0.3151,0.3105,0.3236,0.3163,0.3181,0.3182,0.3098,0.3087,0.3113,0.3229,0.3228,0.3228,0.3227,0,0.2712,0.2681,0.2681,0.2657,0.2681,0.2695,0.2752,0.2809,0.2901,0.2967,0.3041,0.3107,0.3147,0.3216,0.3216,0.3272,0.3296,0.3233,0.3229,0.3121,0.311,0.3039,0.3005,0.3234,0.3233,0.3232,0.3231,0,0.2631,0.2616,0.2587,0.2621,0.2638,0.2658,0.2735,0.2787,0.289,0.2981,0.3015,0.3153,0.3254,0.331,0.3376,0.3361,0.3316,0.3408,0.3308,0.3288,0.3193,0.3167,0.31,0.3008,0.3464,0.3465,0.3465,0,0.2557,0.253,0.2568,0.2576,0.2581,0.2624,0.2661,0.2763,0.2825,0.2999,0.304,0.3188,0.3271,0.3416,0.343,0.3488,0.3357,0.3417,0.3288,0.3215,0.3184,0.3034,0.2948,0.3226,0.3224,0.3223,0.3222,0,0.2463,0.2487,0.2488,0.2517,0.2544,0.2575,0.2636,0.2684,0.2816,0.2899,0.3016,0.3097,0.3276,0.3301,0.3415,0.342,0.3256,0.3395,0.3327,0.3027,0.2857,0.2756,0.3123,0.3212,0.3213,0.3214,0.3214,0.3215,0.2413,0.241,0.2433,0.2452,0.2482,0.2507,0.2504,0.2589,0.2658,0.2754,0.2909,0.2982,0.3142,0.328,0.328,0.3236,0.3192,0.3136,0.313,0.2999,0.2836,0.3215,0.3276,0.3277,0.3278,0.3279,0.328,0,0.2344,0.2352,0.2371,0.2377,0.2369,0.2418,0.2467,0.245,0.2478,0.2613,0.2687,0.2815,0.2906,0.3009,0.3074,0.2982,0.2815,0.2912,0.2665,0.2607,0.2965,0.2878,0.2844,0.2844,0.2844,0.2844,0.2844,0.2844,0.23,0.2289,0.2303,0.2259,0.2261,0.2209,0.2208,0.2208,0.2266,0.2305,0.2357,0.2472,0.272,0.2905,0.2867,0.2797,0.2563,0.247,0.2452,0.2707,0.2725,0.2742,0.2651,0.257,0.257,0.1954,0.1949,0.1946]},{"header":{"parameterUnit":"m.s-1","parameterCategory":2,"la1":30.2991,"la2":30.254,"lo1":-89.0895,"lo2":-89.0444,"dy":0.0017,"dx":0.0017,"nx":28,"ny":28,"refTime":"2026-02-18T03:00:00:Z","depth":"0","parameterNumber":3,"parameterNumberName":"V-component_of_CURRENTS"},"data":[0,0,0,0,0,0,0,0,0,0,0,0,0,0,0,0,0,0,0,0,0,0,0,0,0,0,0,0,0,0,0,0,0,0,0,0,0,0,0,0,0,0,0,0,0,0,0,0,0,0,0,0,0,0,0,0,0,0,0.0324,0.0321,0,0.014,0.0138,0.0136,0.0062,0.0062,0.0063,0.0063,0.0009,0.0008,0.0006,0,0,0,0,0,0,0,0,0,0,0,0,0,0.033,0.0332,0.0324,0.0321,0.0319,0.014,0.0138,0.0136,0.0062,0.0062,0.0063,0.0063,0.001,0.0008,0.0006,0,0,0,0,0,0,0,0,0,0,0,0,0,0.0259,0.0333,0.0324,0.0258,0.025,0.0141,0.0138,0.0135,0.0062,0.0062,0.0063,0.0063,0.001,0.0008,0.0006,-0.0014,0,0,-0.0001,-0.0002,0,0,0,0,0,0,0,0,0.0263,0.0259,0.027,0.0263,0.0253,0.0122,0.012,0.0091,0.0062,0.0137,0.0063,0.0063,0.0057,0.0051,0.0018,-0.0016,-0.0018,-0.0002,-0.0003,-0.0004,-0.0005,0,0,0,0,0,0,0,0.0269,0.0265,0.0254,0.0268,0.0257,0.0141,0.0134,0.0113,0.0103,0.013,0.0124,0.0098,0.0054,0.002,0.0017,-0.0019,-0.0002,-0.0004,-0.0005,-0.0006,-0.0038,-0.0037,0,0,0,0,0,0,0.03,0.0272,0.026,0.0248,0.0255,0.0142,0.0134,0.0166,0.01,0.0088,0.0098,0.0096,0.0024,0.0019,0.0015,0.0033,-0.0004,-0.0006,-0.0008,-0.0038,-0.0038,-0.0037,0,0,0,0,0,0,0.0302,0.0304,0.0267,0.0249,0.0236,0.0143,0.0178,0.0162,0.0127,0.0073,0.0065,0.008,0.0024,0.0018,0.0012,0.0029,-0.0007,-0.0009,-0.0039,-0.0038,-0.0037,0.0042,0,0,0,0,0,0,0.0304,0.0307,0.0335,0.0254,0.0238,0.0211,0.0177,0.0158,0.011,0.0105,0.0055,0.0049,0.0024,0.0016,0.0009,0.0025,-0.0011,-0.004,-0.0039,-0.0038,0.0038,0.0045,0.0051,0,0,0,0,0,0.0306,0.0345,0.034,0.0336,0.0286,0.0211,0.0193,0.0125,0.0109,0.0096,0.0075,0.0051,0.0018,0.0014,0.0007,0.0022,-0.004,-0.0039,-0.0038,0.0036,0.0044,0.0051,0,0,0,0,0,0,0.034,0.0338,0.0331,0.0364,0.0297,0.0198,0.0174,0.0129,0.0094,0.01,0.0058,0.0052,0.0051,0.0025,0.0022,0.0015,-0.0015,-0.0016,0.0043,0.005,0.0056,0.0073,-0.0013,0,0,0,0,0,0.037,0.0417,0.0357,0.0376,0.0353,0.0266,0.0226,0.0182,0.0134,0.0117,0.0084,0.006,0.0048,0.0041,0.002,0.0017,-0.0011,0.0021,0.0028,0.0034,0.0041,-0.0002,0.0002,-0.0033,-0.0033,-0.0033,0,0,0.0379,0.0386,0.0406,0.0387,0.0335,0.0309,0.0244,0.0192,0.018,0.0122,0.0111,0.008,0.0051,0.0051,0.0048,0.0034,0.0034,0.0035,0.004,0.0045,0.0,0.0003,0.0006,-0.0032,-0.0032,-0.0032,0,0,0.0407,0.0438,0.0473,0.0436,0.0376,0.0332,0.0324,0.0239,0.0217,0.0192,0.0159,0.0139,0.0108,0.0091,0.0081,0.0108,0.0067,0.0101,0.0148,0.0107,0.0109,0.0111,0.0105,0.0105,0.0106,0.0106,0.0106,0,0.0411,0.0467,0.0453,0.0456,0.0434,0.0355,0.035,0.0314,0.0238,0.0236,0.0207,0.0161,0.0128,0.0138,0.0144,0.0123,0.0102,0.0125,0.0116,0.0116,0.0117,0.0109,0.0109,0.011,0.0109,0.0109,0.0108,0,0.0457,0.0485,0.049,0.0505,0.0477,0.0455,0.0409,0.039,0.0358,0.0319,0.0309,0.0254,0.0229,0.0212,0.0186,0.0182,0.0169,0.0128,0.0099,0.0125,0.0116,0.0114,0.0115,0.0114,0.0113,0.0112,0,0,0.0505,0.0526,0.0527,0.054,0.0507,0.0487,0.0493,0.0472,0.0488,0.042,0.0432,0.0384,0.0342,0.0327,0.0284,0.0243,0.0227,0.0192,0.0188,0.0192,0.0161,0.016,0.0157,0.018,0.0179,0.0179,0.0162,0,0.0534,0.0575,0.0577,0.0595,0.0604,0.0567,0.0578,0.0556,0.0539,0.0535,0.0476,0.0465,0.0393,0.0382,0.0332,0.0256,0.0221,0.0237,0.0129,0.0127,0.0127,0.0154,0.0143,0.0127,0.016,0.016,0.016,0,0.0576,0.0606,0.0641,0.0664,0.0665,0.0667,0.0692,0.0692,0.0679,0.0668,0.0642,0.0589,0.0542,0.046,0.0349,0.0363,0.0271,0.02,0.0197,0.0165,0.0121,0.0099,0.0121,-0.0028,0.0156,0.0156,0.0156,0,0.0623,0.065,0.0693,0.0695,0.0705,0.0722,0.0729,0.073,0.0759,0.0753,0.0773,0.0697,0.0675,0.0541,0.0398,0.0369,0.0272,0.021,0.0129,0.0129,0.0083,0.008,-0.005,0.0119,0.012,0.012,0.012,0,0.0662,0.069,0.0718,0.0737,0.0791,0.0777,0.0837,0.0839,0.0862,0.092,0.0844,0.0873,0.0687,0.0608,0.0449,0.0307,0.0312,0.0151,0.0121,0.0113,0.0113,-0.005,-0.0134,0.0119,0.0119,0.0119,0.0119,0,0.0689,0.0707,0.0758,0.0795,0.081,0.0848,0.0904,0.0953,0.0969,0.1045,0.1047,0.1007,0.0912,0.0735,0.0541,0.0398,0.0153,0.0181,0.0208,0.0181,-0.0048,-0.0127,-0.027,-0.0337,0.0088,0.0088,0.0087,0,0.0712,0.0741,0.0806,0.0848,0.0863,0.0921,0.0968,0.0999,0.1065,0.1137,0.1184,0.1126,0.1111,0.0856,0.0574,0.0325,0.0162,0.0154,0.0077,-0.0049,-0.0159,-0.0212,-0.0262,0.0057,0.0057,0.0056,0.0056,0,0.0754,0.0774,0.0819,0.0906,0.0965,0.104,0.1112,0.118,0.1241,0.1315,0.1398,0.1392,0.1168,0.0917,0.0584,0.0393,0.0048,0.014,-0.0017,-0.0208,-0.025,-0.0331,0.0081,0.0053,0.0054,0.0054,0.0054,0.0054,0.0788,0.0828,0.0894,0.0973,0.1047,0.1148,0.1221,0.1318,0.1433,0.1553,0.1547,0.1571,0.122,0.0761,0.0497,0.0015,0.0013,-0.0147,-0.0231,-0.0271,-0.0347,0.0084,0.0035,0.0035,0.0035,0.0035,0.0035,0,0.0833,0.0879,0.096,0.1057,0.1145,0.1176,0.1313,0.1402,0.1549,0.1651,0.1721,0.1559,0.1122,0.0674,0.0035,-0.0295,-0.0423,-0.0476,-0.058,-0.0614,-0.0258,-0.0273,-0.036,-0.036,-0.0359,-0.0359,-0.0359,-0.0359,0.086,0.0937,0.0979,0.1124,0.1194,0.1317,0.1399,0.1538,0.1638,0.1757,0.1765,0.175,0.1417,0.0292,-0.0457,-0.0631,-0.0871,-0.0924,-0.1023,-0.0814,-0.0791,-0.0768,-0.0803,-0.0999,-0.1,-0.1346,-0.135,-0.1353]}],[{"header":{"parameterUnit":"m.s-1","parameterCategory":2,"la1":30.2991,"la2":30.254,"lo1":-89.0895,"lo2":-89.0444,"dy":0.0017,"dx":0.0017,"nx":28,"ny":28,"refTime":"2026-02-18T03:00:00:Z","depth":"2","parameterNumber":2,"parameterNumberName":"U-component_of_CURRENTS"},"data":[0,0,0,0,0,0,0,0,0,0,0,0,0,0,0,0,0,0,0,0,0,0,0,0,0,0,0,0,0,0,0,0,0,0,0,0,0,0,0,0,0,0,0,0,0,0,0,0,0,0,0,0,0,0,0,0,0,0,0.1991,0.1991,0,0.1994,0.1994,0.1995,0.2009,0.2009,0.2009,0.2009,0.2014,0.2014,0.2014,0,0,0,0,0,0,0,0,0,0,0,0,0,0.1884,0.1887,0.1991,0.1991,0.199,0.1994,0.1994,0.1995,0.2009,0.2009,0.2009,0.2009,0.2014,0.2014,0.2014,0,0,0,0,0,0,0,0,0,0,0,0,0,0.1917,0.1888,0.1991,0.1995,0.1995,0.1994,0.1994,0.1995,0.2009,0.2009,0.2009,0.2009,0.2013,0.2014,0.2014,0.2015,0,0,0.2014,0.2014,0,0,0,0,0,0,0,0,0.1915,0.1921,0.1995,0.1995,0.1995,0.1998,0.1958,0.2,0.2009,0.2007,0.2009,0.2009,0.2006,0.2007,0.2012,0.2015,0.2015,0.2014,0.2015,0.2015,0.2015,0,0,0,0,0,0,0,0.1913,0.192,0.1996,0.1994,0.1994,0.1958,0.1964,0.1966,0.2009,0.2007,0.2007,0.2002,0.2007,0.2012,0.2013,0.2015,0.2014,0.2015,0.2015,0.2015,0.2065,0.2066,0,0,0,0,0,0,0.1912,0.1919,0.1995,0.1995,0.195,0.196,0.1967,0.2,0.2009,0.201,0.2002,0.2003,0.2012,0.2012,0.2013,0.2053,0.2015,0.2015,0.2015,0.2064,0.2066,0.2067,0,0,0,0,0,0,0.191,0.192,0.1995,0.1952,0.1958,0.1962,0.1999,0.2,0.2015,0.2005,0.2006,0.2017,0.2012,0.2013,0.2029,0.2051,0.2015,0.2015,0.2063,0.2065,0.2066,0.2108,0,0,0,0,0,0,0.1908,0.1921,0.1941,0.1953,0.1961,0.2004,0.1998,0.2,0.2009,0.201,0.2017,0.2017,0.2012,0.2029,0.2029,0.2051,0.2015,0.2061,0.2063,0.2066,0.2105,0.2111,0.2116,0,0,0,0,0,0.1905,0.1934,0.1944,0.1952,0.1992,0.2004,0.2006,0.2008,0.201,0.2022,0.2028,0.2017,0.2044,0.203,0.203,0.2052,0.206,0.2063,0.2065,0.2102,0.211,0.2116,0,0,0,0,0,0,0.1902,0.1938,0.1949,0.199,0.1999,0.2005,0.2018,0.2015,0.203,0.2034,0.2029,0.203,0.2055,0.2049,0.2033,0.2075,0.2052,0.2055,0.208,0.2087,0.2092,0.2097,0.2015,0,0,0,0,0,0.191,0.1956,0.1963,0.2007,0.2009,0.2016,0.2021,0.202,0.2031,0.2038,0.2041,0.205,0.2066,0.2071,0.208,0.2098,0.2108,0.2115,0.212,0.2125,0.213,0.2162,0.217,0.2076,0.2076,0.2076,0,0,0.1949,0.1952,0.1996,0.2009,0.2024,0.2027,0.2022,0.2037,0.2048,0.2036,0.2062,0.2068,0.2076,0.2101,0.2112,0.2098,0.2161,0.2128,0.2132,0.2135,0.2165,0.2175,0.2183,0.2078,0.2078,0.2077,0,0,0.198,0.2027,0.2045,0.2048,0.2042,0.2048,0.2053,0.2058,0.2074,0.2089,0.2093,0.2113,0.2126,0.2141,0.2149,0.219,0.219,0.2195,0.2224,0.2255,0.2263,0.227,0.231,0.2321,0.2196,0.2196,0.2196,0,0.1994,0.2029,0.2052,0.2035,0.2049,0.2059,0.2066,0.2081,0.2091,0.2111,0.2104,0.2147,0.2148,0.219,0.2205,0.2202,0.2223,0.2197,0.2262,0.2269,0.2276,0.2315,0.2326,0.2198,0.2198,0.2198,0.2198,0,0.2009,0.2041,0.2054,0.2055,0.207,0.2089,0.2101,0.2124,0.2141,0.2148,0.2194,0.2203,0.2231,0.2236,0.2232,0.2284,0.2286,0.2266,0.2244,0.2288,0.2327,0.2337,0.2202,0.2201,0.22,0.22,0,0,0.2032,0.2057,0.2066,0.2071,0.2085,0.2098,0.2137,0.217,0.2206,0.2215,0.2263,0.2287,0.2296,0.2307,0.2312,0.2332,0.2396,0.2321,0.2321,0.2359,0.248,0.2446,0.2454,0.2389,0.2391,0.2392,0.2495,0,0.203,0.202,0.2043,0.2078,0.2083,0.2123,0.2166,0.2198,0.2238,0.2283,0.2303,0.2343,0.2324,0.2348,0.2369,0.2391,0.2424,0.2371,0.2434,0.2436,0.2398,0.2465,0.2277,0.2349,0.2505,0.2506,0.2508,0,0.2021,0.2016,0.2038,0.2092,0.2104,0.2128,0.2214,0.2251,0.2318,0.2353,0.2396,0.241,0.2457,0.2426,0.2496,0.2466,0.2482,0.2489,0.2493,0.2452,0.2421,0.2328,0.2362,0.2525,0.2523,0.2522,0.2521,0,0.1996,0.2026,0.205,0.2063,0.211,0.2148,0.2192,0.2268,0.2317,0.24,0.244,0.2492,0.2536,0.2554,0.2575,0.2544,0.2645,0.2602,0.2592,0.259,0.2437,0.2419,0.2654,0.2654,0.2653,0.2653,0.2653,0,0.1973,0.2001,0.2044,0.2043,0.2094,0.2143,0.2209,0.2271,0.2362,0.2416,0.2475,0.2526,0.257,0.2622,0.2618,0.2652,0.2688,0.2617,0.2618,0.2448,0.2431,0.2577,0.2567,0.2657,0.2656,0.2655,0.2655,0,0.1946,0.1978,0.1993,0.2044,0.2071,0.2107,0.22,0.2249,0.2353,0.2431,0.2458,0.2575,0.2647,0.2687,0.2741,0.272,0.2738,0.2738,0.2546,0.2521,0.2652,0.2643,0.2738,0.2738,0.2737,0.2737,0.2737,0,0.1923,0.1927,0.1971,0.1992,0.2017,0.2076,0.2121,0.2227,0.2283,0.2443,0.2477,0.2594,0.264,0.2737,0.273,0.2748,0.2768,0.2584,0.2479,0.2672,0.2664,0.2655,0.2646,0.2303,0.23,0.2297,0.2294,0,0.1865,0.1893,0.1899,0.1954,0.1995,0.2019,0.2093,0.212,0.2251,0.2326,0.2426,0.2479,0.2607,0.2551,0.2612,0.2585,0.2561,0.2524,0.2786,0.2309,0.227,0.2259,0.2263,0.2267,0.227,0.2272,0.2273,0.2275,0.182,0.1821,0.1856,0.1891,0.1938,0.1942,0.1937,0.2016,0.2069,0.2154,0.228,0.2314,0.2387,0.2373,0.2319,0.2297,0.2458,0.2342,0.2348,0.2358,0.2287,0.225,0.2231,0.2234,0.2236,0.2238,0.2239,0,0.1767,0.1776,0.1798,0.1817,0.1826,0.1889,0.1906,0.1876,0.1881,0.1999,0.2062,0.1947,0.195,0.2015,0.1949,0.1971,0.1917,0.1887,0.1791,0.1822,0.1849,0.1746,0.155,0.1547,0.1544,0.1542,0,0,0.1735,0.1716,0.1705,0.1678,0.1715,0.1691,0.1665,0.1644,0.1685,0.1669,0.1698,0.1862,0.1967,0.1717,0.1712,0.1613,0.1691,0.1557,0.2122,0.2041,0.2063,0.2141,0.2024,0,0,0,0,0]},{"header":{"parameterUnit":"m.s-1","parameterCategory":2,"la1":30.2991,"la2":30.254,"lo1":-89.0895,"lo2":-89.0444,"dy":0.0017,"dx":0.0017,"nx":28,"ny":28,"refTime":"2026-02-18T03:00:00:Z","depth":"2","parameterNumber":3,"parameterNumberName":"V-component_of_CURRENTS"},"data":[0,0,0,0,0,0,0,0,0,0,0,0,0,0,0,0,0,0,0,0,0,0,0,0,0,0,0,0,0,0,0,0,0,0,0,0,0,0,0,0,0,0,0,0,0,0,0,0,0,0,0,0,0,0,0,0,0,0,0.0031,0.003,0,-0.0065,-0.0066,-0.0067,-0.0101,-0.0101,-0.0101,-0.0101,-0.0147,-0.0148,-0.0149,0,0,0,0,0,0,0,0,0,0,0,0,0,0.0059,0.006,0.0031,0.003,0.0028,-0.0065,-0.0066,-0.0067,-0.0101,-0.0101,-0.0101,-0.0101,-0.0146,-0.0148,-0.0149,0,0,0,0,0,0,0,0,0,0,0,0,0,0.0018,0.006,0.0031,-0.0003,-0.0007,-0.0065,-0.0066,-0.0067,-0.0101,-0.0101,-0.0101,-0.0101,-0.0146,-0.0148,-0.015,-0.0161,0,0,-0.0155,-0.0156,0,0,0,0,0,0,0,0,0.002,0.0017,0.0004,-0.0001,-0.0006,-0.0074,-0.0074,-0.0097,-0.0101,-0.0061,-0.0101,-0.0101,-0.012,-0.0124,-0.0138,-0.0163,-0.0165,-0.0155,-0.0156,-0.0157,-0.0158,0,0,0,0,0,0,0,0.0023,0.002,-0.0003,0.0002,-0.0004,-0.0057,-0.0061,-0.0079,-0.0085,-0.0064,-0.0068,-0.0085,-0.0122,-0.0136,-0.0139,-0.0166,-0.0155,-0.0157,-0.0158,-0.0159,-0.0191,-0.019,0,0,0,0,0,0,0.0034,0.0024,-0.0,-0.0006,0.0003,-0.0057,-0.0062,-0.0049,-0.0087,-0.0094,-0.0085,-0.0086,-0.0133,-0.0137,-0.0141,-0.0133,-0.0157,-0.0159,-0.016,-0.0191,-0.0191,-0.019,0,0,0,0,0,0,0.0036,0.0034,0.0004,0.0001,-0.0007,-0.0057,-0.0043,-0.0051,-0.0067,-0.0104,-0.0109,-0.0094,-0.0133,-0.0138,-0.0145,-0.0136,-0.016,-0.0161,-0.0191,-0.0191,-0.019,-0.0133,0,0,0,0,0,0,0.0038,0.0036,0.0051,0.0003,-0.0006,-0.0025,-0.0044,-0.0053,-0.008,-0.0082,-0.0113,-0.0117,-0.0133,-0.0142,-0.0146,-0.0139,-0.0163,-0.0192,-0.0191,-0.0191,-0.0135,-0.0131,-0.0127,0,0,0,0,0,0.0039,0.0063,0.0053,0.0049,0.0017,-0.0025,-0.0034,-0.007,-0.008,-0.0084,-0.0097,-0.0116,-0.0142,-0.0143,-0.0148,-0.0141,-0.0192,-0.0191,-0.0191,-0.0137,-0.0132,-0.0127,0,0,0,0,0,0,0.0081,0.0059,0.0048,0.0065,0.0023,-0.0032,-0.0044,-0.0069,-0.0085,-0.0085,-0.0111,-0.0115,-0.0119,-0.014,-0.0139,-0.015,-0.0172,-0.0172,-0.0129,-0.0124,-0.012,-0.0111,-0.0164,0,0,0,0,0,0.0097,0.0114,0.0068,0.0079,0.0059,0.0008,-0.0014,-0.004,-0.0068,-0.0076,-0.0094,-0.0112,-0.0122,-0.0129,-0.0144,-0.015,-0.0176,-0.0151,-0.0146,-0.0143,-0.014,-0.0172,-0.0171,-0.0188,-0.0188,-0.0188,0,0,0.0106,0.0104,0.0106,0.0088,0.0053,0.0032,-0.0004,-0.0036,-0.0042,-0.0077,-0.0078,-0.0098,-0.012,-0.0122,-0.0126,-0.0137,-0.0151,-0.0142,-0.0138,-0.0137,-0.0171,-0.017,-0.0168,-0.0188,-0.0188,-0.0188,0,0,0.0126,0.0137,0.0143,0.0119,0.0075,0.0049,0.0042,-0.001,-0.0019,-0.0031,-0.0051,-0.0064,-0.0085,-0.0096,-0.0105,-0.009,-0.0127,-0.0098,-0.0069,-0.01,-0.0099,-0.0098,-0.0123,-0.0125,-0.0096,-0.0096,-0.0096,0,0.0138,0.0153,0.0133,0.0127,0.0115,0.0062,0.0053,0.0034,-0.0008,-0.0006,-0.0022,-0.0051,-0.0072,-0.0071,-0.0065,-0.0079,-0.0103,-0.0083,-0.0094,-0.0094,-0.0094,-0.012,-0.0123,-0.0093,-0.0093,-0.0094,-0.0094,0,0.0153,0.016,0.0159,0.0151,0.0136,0.012,0.0087,0.0079,0.0063,0.0042,0.0036,0.0004,-0.0011,-0.0023,-0.0038,-0.0046,-0.0063,-0.0083,-0.0104,-0.0088,-0.0117,-0.0121,-0.0089,-0.009,-0.0091,-0.0092,0,0,0.0204,0.0176,0.0179,0.0179,0.0153,0.0143,0.0144,0.0131,0.0143,0.0102,0.0114,0.0083,0.0059,0.0047,0.0019,-0.0011,-0.0032,-0.0044,-0.0047,-0.0064,-0.0099,-0.0113,-0.012,-0.0055,-0.0056,-0.0056,-0.0116,0,0.0222,0.0223,0.0213,0.0219,0.0211,0.0189,0.0203,0.019,0.0179,0.0179,0.0137,0.0133,0.0088,0.0083,0.0047,-0.0009,-0.0041,-0.0014,-0.0116,-0.0119,-0.013,-0.0124,-0.0096,-0.0147,-0.012,-0.0121,-0.0121,0,0.0245,0.0251,0.0252,0.0262,0.0261,0.0265,0.0291,0.0294,0.0281,0.0273,0.0249,0.0212,0.0173,0.0127,0.0032,0.0052,-0.0017,-0.0071,-0.0075,-0.0112,-0.0141,-0.0161,-0.0156,-0.0128,-0.0128,-0.0127,-0.0127,0,0.0287,0.0287,0.03,0.0298,0.0293,0.0311,0.0321,0.0322,0.0349,0.033,0.034,0.0277,0.026,0.0158,0.0048,0.0038,-0.0064,-0.0092,-0.0172,-0.0174,-0.0182,-0.0183,-0.0166,-0.0166,-0.0166,-0.0166,-0.0166,0,0.0315,0.0327,0.0321,0.0325,0.0372,0.0356,0.0405,0.0408,0.0424,0.0463,0.0392,0.0405,0.0266,0.0191,0.0071,-0.0056,-0.0048,-0.0165,-0.0191,-0.016,-0.0159,-0.017,-0.017,-0.0168,-0.0167,-0.0167,-0.0167,0,0.0337,0.0326,0.0349,0.0366,0.038,0.0415,0.0465,0.0504,0.0507,0.0554,0.0552,0.0505,0.0407,0.0259,0.0103,-0.0008,-0.0143,-0.0192,-0.0143,-0.0162,-0.0239,-0.0235,-0.029,-0.0291,-0.0292,-0.0292,-0.0293,0,0.0337,0.0347,0.0387,0.0422,0.043,0.0478,0.0521,0.0544,0.0596,0.062,0.0656,0.058,0.0538,0.0304,0.0094,-0.0119,-0.0145,-0.023,-0.0249,-0.0233,-0.0252,-0.0246,-0.0241,-0.0236,-0.0236,-0.0236,-0.0236,0,0.0352,0.0371,0.0395,0.047,0.0521,0.0582,0.0647,0.0699,0.0736,0.0774,0.0812,0.0774,0.056,0.0359,0.0073,-0.0069,-0.0198,-0.0239,-0.0235,-0.0207,-0.0187,-0.0204,-0.02,-0.0237,-0.0237,-0.0237,-0.0237,-0.0237,0.0372,0.0406,0.0451,0.0523,0.0593,0.068,0.0742,0.0816,0.0899,0.0966,0.0927,0.0886,0.0649,0.0293,0.0045,-0.0205,-0.0204,-0.029,-0.0288,-0.0286,-0.0268,-0.025,-0.0308,-0.0308,-0.0309,-0.0309,-0.0309,0,0.04,0.0441,0.0507,0.0595,0.0685,0.0716,0.0829,0.0889,0.0992,0.1047,0.1066,0.085,0.0615,0.0346,-0.0026,-0.026,-0.0271,-0.0324,-0.0287,-0.0284,-0.0283,-0.0263,-0.0303,-0.0303,-0.0304,-0.0304,0,0,0.0416,0.0474,0.0508,0.0649,0.0731,0.0851,0.092,0.1004,0.1068,0.1115,0.1109,0.1043,0.0706,0.0443,0.0125,-0.0086,-0.0128,-0.0125,-0.0105,-0.0021,-0.0016,-0.0241,-0.0204,0,0,0,0,0]}],[{"header":{"parameterUnit":"m.s-1","parameterCategory":2,"la1":30.2991,"la2":30.254,"lo1":-89.0895,"lo2":-89.0444,"dy":0.0017,"dx":0.0017,"nx":28,"ny":28,"refTime":"2026-02-18T03:00:00:Z","depth":"4","parameterNumber":2,"parameterNumberName":"U-component_of_CURRENTS"},"data":[0,0,0,0,0,0,0,0,0,0,0,0,0,0,0,0,0,0,0,0,0,0,0,0,0,0,0,0,0,0,0,0,0,0,0,0,0,0,0,0,0,0,0,0,0,0,0,0,0,0,0,0,0,0,0,0,0,0,0.1081,0.1084,0,0.1299,0.1301,0.1303,0.1406,0.1407,0.1407,0.1408,0.1464,0.1465,0.1466,0,0,0,0,0,0,0,0,0,0,0,0,0,0.0771,0.0776,0.108,0.1084,0.1087,0.1299,0.1301,0.1303,0.1406,0.1407,0.1407,0.1408,0.1464,0.1465,0.1466,0,0,0,0,0,0,0,0,0,0,0,0,0,0.0932,0.0777,0.108,0.1169,0.118,0.1298,0.1301,0.1304,0.1406,0.1407,0.1407,0.1408,0.1463,0.1465,0.1466,0.1459,0,0,0.1471,0.1471,0,0,0,0,0,0,0,0,0.0923,0.0942,0.1153,0.1163,0.1176,0.1333,0.1214,0.1351,0.1406,0.1312,0.1408,0.1409,0.1409,0.1415,0.1446,0.1462,0.1465,0.1471,0.1472,0.1472,0.1473,0,0,0,0,0,0,0,0.0911,0.0934,0.116,0.1156,0.117,0.1206,0.1228,0.124,0.1345,0.1321,0.133,0.1366,0.1413,0.1445,0.1448,0.1465,0.1471,0.1472,0.1473,0.1474,0.1557,0.1558,0,0,0,0,0,0,0.0898,0.0923,0.1153,0.1167,0.1057,0.1211,0.1236,0.1275,0.1349,0.1364,0.1365,0.137,0.1442,0.1446,0.145,0.1511,0.1472,0.1474,0.1475,0.1555,0.1557,0.1558,0,0,0,0,0,0,0.089,0.0916,0.1144,0.1055,0.1088,0.1216,0.1259,0.1279,0.1347,0.1386,0.1397,0.1417,0.1443,0.1448,0.1488,0.1511,0.1475,0.1476,0.1554,0.1556,0.1558,0.1591,0,0,0,0,0,0,0.0881,0.0912,0.0943,0.1055,0.1093,0.1238,0.126,0.1283,0.137,0.1379,0.1432,0.1437,0.1444,0.1485,0.1489,0.1513,0.1477,0.1552,0.1555,0.1557,0.1588,0.1593,0.1598,0,0,0,0,0,0.0869,0.092,0.0943,0.0972,0.1129,0.124,0.1263,0.135,0.1371,0.1411,0.1441,0.1437,0.1504,0.1488,0.1492,0.1516,0.1551,0.1554,0.1557,0.1585,0.1592,0.1598,0,0,0,0,0,0,0.0809,0.094,0.0967,0.1056,0.1147,0.1261,0.1322,0.1366,0.1426,0.1435,0.1452,0.146,0.1504,0.1506,0.1488,0.1549,0.1527,0.1531,0.1548,0.1554,0.1559,0.1555,0.1478,0,0,0,0,0,0.0806,0.088,0.0992,0.1066,0.1115,0.1215,0.1275,0.1331,0.14,0.1431,0.1465,0.1493,0.1515,0.1532,0.1553,0.1582,0.1586,0.1602,0.1607,0.1612,0.1612,0.1643,0.1651,0.1568,0.1568,0.1568,0,0,0.0797,0.0888,0.0924,0.1059,0.1138,0.1209,0.1254,0.1358,0.1403,0.1421,0.1489,0.1514,0.1528,0.1567,0.1586,0.1574,0.1638,0.1615,0.1619,0.1617,0.1647,0.1655,0.1662,0.157,0.157,0.1569,0,0,0.0831,0.0904,0.0975,0.1049,0.1181,0.1234,0.1266,0.1385,0.1428,0.1489,0.1511,0.1553,0.1593,0.1613,0.1622,0.1667,0.1666,0.1678,0.17,0.173,0.1737,0.1743,0.1759,0.1766,0.1679,0.168,0.168,0,0.0819,0.0923,0.1011,0.1097,0.1155,0.1242,0.1307,0.1363,0.1472,0.1499,0.1513,0.1595,0.1611,0.1651,0.1672,0.1678,0.1692,0.1673,0.1736,0.1742,0.1748,0.1763,0.177,0.1681,0.1681,0.1681,0.1681,0,0.0901,0.098,0.1034,0.1154,0.1216,0.1299,0.1374,0.143,0.1478,0.1528,0.1595,0.163,0.1678,0.1693,0.1696,0.1748,0.1745,0.1739,0.1717,0.1758,0.1772,0.1779,0.1684,0.1684,0.1683,0.1682,0,0,0.09,0.1055,0.1079,0.1123,0.1253,0.1309,0.1372,0.1453,0.1495,0.1574,0.1627,0.1681,0.1716,0.1729,0.1751,0.1779,0.1833,0.1781,0.1782,0.1791,0.1899,0.1793,0.1791,0.1844,0.1846,0.1847,0.1892,0,0.0944,0.1071,0.1143,0.1234,0.1294,0.1362,0.1409,0.148,0.1537,0.1604,0.1651,0.1712,0.1724,0.1759,0.1791,0.1828,0.1854,0.1821,0.1863,0.1864,0.176,0.1796,0.1851,0.1898,0.1899,0.19,0.1901,0,0.1012,0.1085,0.1174,0.1262,0.1295,0.135,0.1428,0.1483,0.1573,0.1618,0.1687,0.1735,0.1804,0.1802,0.1882,0.1865,0.1886,0.1904,0.1906,0.1799,0.1771,0.1849,0.1914,0.1913,0.1912,0.1911,0.191,0,0.0973,0.1107,0.1165,0.1204,0.1313,0.1354,0.1408,0.1495,0.1543,0.1639,0.1691,0.1769,0.1828,0.1869,0.1923,0.1913,0.1996,0.1981,0.1901,0.1893,0.196,0.1953,0.2025,0.2025,0.2025,0.2025,0.2025,0,0.0994,0.1048,0.1154,0.1193,0.1247,0.1331,0.1398,0.146,0.1557,0.1613,0.1704,0.1758,0.1853,0.1915,0.1939,0.1943,0.2012,0.1906,0.1899,0.1973,0.1967,0.1965,0.1957,0.2026,0.2026,0.2026,0.2025,0,0.0952,0.1029,0.11,0.1207,0.124,0.1278,0.1392,0.1433,0.1538,0.1615,0.1654,0.1777,0.1853,0.1925,0.1997,0.1957,0.1971,0.1952,0.203,0.2027,0.1842,0.1836,0.1857,0.1854,0.1851,0.1849,0.1847,0,0.0939,0.0978,0.109,0.1116,0.1173,0.1243,0.1288,0.1407,0.1457,0.161,0.1638,0.176,0.1827,0.1843,0.192,0.1949,0.1933,0.1918,0.1871,0.1834,0.1826,0.1824,0.1822,0.1842,0.1842,0.1841,0.184,0,0.0895,0.0947,0.0991,0.105,0.1104,0.116,0.1243,0.1276,0.1407,0.152,0.1589,0.1641,0.1722,0.1777,0.1817,0.1832,0.1913,0.1888,0.1894,0.1849,0.1816,0.1811,0.1812,0.183,0.1832,0.1833,0.1833,0,0.0849,0.0859,0.0915,0.0964,0.1021,0.1059,0.1118,0.1189,0.1258,0.1439,0.1456,0.1585,0.17,0.1718,0.1752,0.1763,0.1738,0.1677,0.1693,0.1704,0.1635,0.157,0.1503,0,0,0,0,0,0.0782,0.0785,0.0822,0.0872,0.0931,0.0977,0.1074,0.1141,0.1281,0.1294,0.1376,0.1445,0.1511,0.158,0.1562,0.1684,0.1739,0.1656,0.1674,0.1776,0.1788,0.1721,0,0,0,0,0,0,0.0736,0.0748,0.0782,0.0782,0.0815,0.0873,0.094,0.1038,0.106,0.1206,0.1252,0.1363,0.145,0.1513,0.1539,0.1559,0.1541,0.1742,0.1739,0.177,0.178,0.1789,0.1724,0,0,0,0,0]},{"header":{"parameterUnit":"m.s-1","parameterCategory":2,"la1":30.2991,"la2":30.254,"lo1":-89.0895,"lo2":-89.0444,"dy":0.0017,"dx":0.0017,"nx":28,"ny":28,"refTime":"2026-02-18T03:00:00:Z","depth":"4","parameterNumber":3,"parameterNumberName":"V-component_of_CURRENTS"},"data":[0,0,0,0,0,0,0,0,0,0,0,0,0,0,0,0,0,0,0,0,0,0,0,0,0,0,0,0,0,0,0,0,0,0,0,0,0,0,0,0,0,0,0,0,0,0,0,0,0,0,0,0,0,0,0,0,0,0,0.0037,0.0036,0,-0.004,-0.004,-0.0041,-0.0068,-0.0068,-0.0068,-0.0068,-0.0105,-0.0106,-0.0107,0,0,0,0,0,0,0,0,0,0,0,0,0,0.0151,0.0149,0.0037,0.0036,0.0035,-0.004,-0.004,-0.0041,-0.0068,-0.0068,-0.0068,-0.0068,-0.0105,-0.0106,-0.0107,0,0,0,0,0,0,0,0,0,0,0,0,0,0.0093,0.0149,0.0038,0.0011,0.0007,-0.0039,-0.004,-0.0041,-0.0068,-0.0068,-0.0068,-0.0068,-0.0105,-0.0106,-0.0108,-0.0118,0,0,-0.0112,-0.0113,0,0,0,0,0,0,0,0,0.0097,0.009,0.0016,0.0012,0.0008,-0.0046,-0.0014,-0.0066,-0.0068,-0.0036,-0.0068,-0.0068,-0.0084,-0.0087,-0.0098,-0.012,-0.0122,-0.0113,-0.0114,-0.0114,-0.0115,0,0,0,0,0,0,0,0.0101,0.0093,0.001,0.0014,0.001,-0.0001,-0.0009,-0.0024,-0.0057,-0.0039,-0.0042,-0.0055,-0.0085,-0.0097,-0.0099,-0.0122,-0.0113,-0.0114,-0.0115,-0.0115,-0.0149,-0.0149,0,0,0,0,0,0,0.0105,0.0096,0.0012,0.0007,0.005,-0.0004,-0.0012,-0.0027,-0.0057,-0.0063,-0.0055,-0.0056,-0.0094,-0.0098,-0.0101,-0.0101,-0.0114,-0.0116,-0.0117,-0.015,-0.0149,-0.0149,0,0,0,0,0,0,0.0107,0.0098,0.0015,0.0048,0.0036,-0.0006,-0.0022,-0.0028,-0.0044,-0.007,-0.0075,-0.0064,-0.0094,-0.0099,-0.0107,-0.0103,-0.0116,-0.0118,-0.015,-0.0149,-0.0149,-0.011,0,0,0,0,0,0,0.0111,0.0099,0.0092,0.0048,0.0034,-0.0011,-0.0022,-0.003,-0.0053,-0.0055,-0.008,-0.0083,-0.0095,-0.0104,-0.0108,-0.0105,-0.0119,-0.015,-0.015,-0.0149,-0.0112,-0.0109,-0.0107,0,0,0,0,0,0.0115,0.0104,0.0092,0.0082,0.0025,-0.0012,-0.0019,-0.0047,-0.0053,-0.006,-0.0069,-0.0083,-0.0107,-0.0105,-0.011,-0.0108,-0.015,-0.015,-0.0149,-0.0113,-0.011,-0.0107,0,0,0,0,0,0,0.0153,0.0099,0.0085,0.0059,0.0027,-0.0017,-0.0032,-0.0047,-0.0063,-0.0063,-0.008,-0.0084,-0.0091,-0.0106,-0.0104,-0.0118,-0.0132,-0.0132,-0.0102,-0.0099,-0.0097,-0.0088,-0.012,0,0,0,0,0,0.0156,0.0132,0.0085,0.0065,0.0047,0.0009,-0.001,-0.0028,-0.0051,-0.0058,-0.0072,-0.0086,-0.0095,-0.0102,-0.0114,-0.0122,-0.0143,-0.0125,-0.0122,-0.012,-0.0117,-0.0144,-0.0143,-0.0149,-0.0149,-0.0149,0,0,0.0166,0.0132,0.0119,0.0071,0.0042,0.0023,-0.0002,-0.0031,-0.0035,-0.0059,-0.0063,-0.0078,-0.0095,-0.01,-0.0105,-0.0112,-0.0131,-0.012,-0.0118,-0.0116,-0.0144,-0.0143,-0.0143,-0.0149,-0.0149,-0.0149,0,0,0.0167,0.0141,0.0117,0.0094,0.0048,0.003,0.0023,-0.0018,-0.0025,-0.0035,-0.0048,-0.0059,-0.0078,-0.0086,-0.0093,-0.0086,-0.0116,-0.0094,-0.0074,-0.01,-0.01,-0.01,-0.0128,-0.0131,-0.0093,-0.0093,-0.0093,0,0.018,0.0147,0.0108,0.0084,0.0073,0.0036,0.0025,0.0011,-0.002,-0.0019,-0.0031,-0.0054,-0.007,-0.0071,-0.0067,-0.008,-0.0102,-0.0081,-0.0096,-0.0097,-0.0097,-0.0127,-0.013,-0.0091,-0.0092,-0.0092,-0.0092,0,0.0161,0.0143,0.0129,0.0092,0.0079,0.0062,0.0039,0.0033,0.0023,0.001,0.0003,-0.0021,-0.0033,-0.0042,-0.0052,-0.0061,-0.0078,-0.0089,-0.0101,-0.0094,-0.0126,-0.013,-0.0089,-0.0089,-0.009,-0.009,0,0,0.0177,0.0125,0.0124,0.0119,0.0086,0.0076,0.0076,0.0067,0.0075,0.0047,0.0051,0.0031,0.0014,0.0005,-0.0015,-0.0039,-0.0062,-0.0062,-0.0065,-0.0086,-0.0125,-0.0126,-0.0131,-0.0077,-0.0078,-0.0078,-0.0145,0,0.0176,0.0147,0.0125,0.0125,0.0113,0.0101,0.011,0.0104,0.0095,0.0093,0.0065,0.0059,0.0033,0.0027,0.0,-0.0045,-0.0072,-0.0043,-0.0132,-0.0135,-0.0133,-0.0135,-0.008,-0.0149,-0.015,-0.0151,-0.0151,0,0.0164,0.0151,0.0142,0.0148,0.0144,0.0148,0.0165,0.0167,0.0158,0.015,0.0132,0.0108,0.0078,0.0051,-0.0027,-0.0008,-0.0061,-0.0102,-0.0106,-0.0123,-0.0144,-0.0159,-0.016,-0.0159,-0.0158,-0.0158,-0.0157,0,0.0188,0.0171,0.0172,0.017,0.0164,0.0177,0.0184,0.0185,0.0203,0.0184,0.0188,0.0142,0.0123,0.005,-0.0031,-0.0031,-0.0125,-0.0137,-0.019,-0.0191,-0.0187,-0.0187,-0.0195,-0.0195,-0.0195,-0.0195,-0.0194,0,0.019,0.0194,0.0185,0.0187,0.0218,0.0205,0.0238,0.0238,0.0245,0.0268,0.022,0.022,0.0121,0.006,-0.0023,-0.0119,-0.0122,-0.0187,-0.0207,-0.017,-0.0167,-0.0191,-0.0189,-0.0197,-0.0197,-0.0196,-0.0196,0,0.0198,0.0186,0.0198,0.021,0.0222,0.0245,0.028,0.0305,0.0301,0.0326,0.0325,0.0277,0.0193,0.0089,-0.0033,-0.01,-0.0197,-0.0233,-0.0186,-0.0203,-0.025,-0.0245,-0.0297,-0.0297,-0.0298,-0.0298,-0.0299,0,0.0188,0.0192,0.0225,0.0249,0.0254,0.0288,0.032,0.0333,0.0363,0.0364,0.0383,0.0313,0.0266,0.0098,-0.0026,-0.0191,-0.0213,-0.0267,-0.0257,-0.0245,-0.026,-0.0255,-0.025,-0.0299,-0.0299,-0.03,-0.03,0,0.0188,0.0204,0.0221,0.0274,0.0313,0.0361,0.0403,0.0432,0.0451,0.0447,0.0438,0.035,0.0252,0.0111,-0.0021,-0.0139,-0.0234,-0.0273,-0.0273,-0.0263,-0.0248,-0.0262,-0.0256,-0.0301,-0.0301,-0.0301,-0.0301,0,0.0198,0.0219,0.0251,0.0302,0.0357,0.0418,0.0438,0.0473,0.05,0.0502,0.0494,0.0382,0.0316,0.0138,0.0017,-0.0102,-0.0132,-0.0167,-0.0173,-0.0173,-0.0119,-0.0081,-0.0098,0,0,0,0,0,0.0206,0.0234,0.0279,0.0339,0.0398,0.0435,0.0492,0.0508,0.0526,0.0532,0.0518,0.0427,0.0251,0.0171,0.0054,-0.0005,-0.0163,-0.0148,-0.0209,-0.0311,-0.0309,-0.0266,0,0,0,0,0,0,0.0212,0.025,0.0277,0.0361,0.0413,0.0483,0.0524,0.0538,0.0542,0.0538,0.0449,0.0399,0.0227,0.0322,0.0053,0.0015,-0.004,-0.0233,-0.0236,-0.0312,-0.031,-0.0308,-0.0264,0,0,0,0,0]}]]